Zurück zum Katalog

STARLINK-37094

AktivKommunikationVLEO
NORAD 68241·PAYLOAD·🇺🇸 United States

Gestartet Mar 17, 2026 von Vandenberg Space Force Base

Loading…

Nächste Überflüge (nächste 24 Stunden)

TLE

AktuellSource: CelesTrak SupGP

Epoche: Sep 15, 2026, 03:20 UTC

1 68241C 26054K   26258.13937500  .00041103  00000+0  12145-2 0  2580
2 68241  53.1559 134.4573 0001218  87.8896 227.9837 15.34367532    14

Verfolge STARLINK-37094 in Echtzeit mit AllMySat

Download on the App Store